Tracking 28126 objects as of 2-Oct-2023
HD Live streaming from Space Station
objects crossing your sky now

STARLINK-2589

Track STARLINK-2589 now!
10-day predictions
STARLINK-2589 is classified as:


NORAD ID: 48371
Int'l Code: 2021-038U
Perigee: 553.1 km
Apogee: 555.6 km
Inclination: 53.1 °
Period: 95.6 minutes
Semi major axis: 6925 km
RCS: Unknown
Launch date: May 4, 2021
Source: United States (US)
Launch site: AIR FORCE EASTERN TEST RANGE (AFETR)
Your satellite tracking list
Your tracking list is empty




NASA's NSSDC Master Catalog

Two Line Element Set (TLE):
1 48371U 21038U   23275.04959378  .00011739  00000-0  80573-3 0  9998
2 48371  53.0556  25.3669 0001751  87.7508 272.3681 15.06397851133662
Source of the keplerian elements: AFSPC